Flag for U.S.A. Weather past 2 weeks in Independence, Missouri, U.S.A.

36 °F

Rain. Fog.

Feels Like: 32 °F
Forecast: 34 / 42 °F
Wind: 5 mph from Northeast

Location: Lee's Summit Municipal Airport

Current Time: Nov 29, 2015 at 7:43:37 PM

Latest Report: Nov 29, 2015 at 6:53 PM

Visibility: 5 mi

Pressure: 30.22 "Hg

Humidity: 92%

Dew point: 34 °F

Location of IndependenceLocation

Historic Weather in Independence — Graph


Independence temperature yesterday

Maximum temperature yesterday: 34 °F (at 10:53 PM)
Minimum temperature yesterday: 31 °F (at 12:53 AM)
Average temperature yesterday: 32 °F

Past Weeks' High & Low Weather Summary

High63 °F (Nov 26, 10:53 AM)97% (Nov 26, 4:53 PM)30.45 "Hg (Nov 26, 4:53 PM)
Low27 °F (Nov 22, 6:53 AM)23% (Nov 19, 12:53 PM)29.36 "Hg (Nov 18, 3:53 AM)
Average46 °F69%30.07 "Hg
* Reported Nov 14 5:53 PM — Nov 29 5:53 PM, Independence, Weather by CustomWeather, © 2015

Note: Actual official high and low records may vary slightly from our data, if they occured in-between our weather recording intervals... More about our weather records


Independence weather history for previous 24 hours

Time TempWeatherWind HumidityBarometerVisibility
5:53 PM
Sun, Nov 29
35 °FLight rain. Fog.6 mph96%30.20 "Hg5 mi
4:53 PM35 °FLight rain. Fog.9 mph96%30.20 "Hg2 mi
3:53 PM35 °FLight rain. Fog.9 mph96%30.21 "Hg2 mi
2:53 PM36 °FLight rain. Fog.8 mph92%30.22 "Hg6 mi
1:53 PM35 °FRain. Fog.10 mph96%30.23 "Hg2 mi
1:03 PM35 °FLight rain. Fog.7 mph96%30.21 "Hg3 mi
12:53 PM35 °FHeavy rain. Fog.7 mph96%30.24 "Hg2 mi
12:01 PM35 °FLight rain. Fog.12 mph92%30.22 "Hg4 mi
10:53 AM35 °FLight rain. Low clouds.12 mph92%30.29 "Hg7 mi
9:53 AM34 °FLight rain. Low clouds.10 mph92%30.29 "Hg7 mi
8:53 AM34 °FLight rain. Low clouds.10 mph92%30.31 "Hg8 mi
7:53 AM34 °FLow clouds.10 mph92%30.31 "Hg7 mi
6:53 AM33 °FLow clouds.10 mph96%30.32 "Hg8 mi
5:53 AM33 °FLow clouds.13 mph92%30.32 "Hg7 mi
4:53 AM33 °FLow clouds.13 mph92%30.31 "Hg8 mi
3:53 AM33 °FLow clouds.8 mph96%30.32 "Hg9 mi
2:53 AM34 °FLow clouds.9 mph92%30.33 "Hg9 mi
1:53 AM34 °FLow clouds.10 mph92%30.34 "Hg9 mi
12:53 AM34 °FLow clouds.8 mph92%30.35 "Hg9 mi
11:53 PM
Sat, Nov 28
33 °FLow clouds.9 mph96%30.36 "Hg9 mi
10:53 PM34 °FLow clouds.8 mph92%30.37 "Hg10 mi
9:53 PM33 °FLow clouds.12 mph96%30.35 "Hg9 mi
8:53 PM33 °FLow clouds.9 mph96%30.36 "Hg10 mi
7:53 PM33 °FLow clouds.8 mph96%30.35 "Hg10 mi
Weather by CustomWeather, © 2015

See weather overviewHow to use our weather pages